SL-16 R/B, 27006

Orbit data source: Space-Track

SL-16 R/B, 27006 is space debris in SSO originally from a launch on Mon, 10 Dec 2001 UTC launched from the Tyuratam Missile And Space Complex (TTMTR). Debris objects in space refer to the collection of defunct objects orbiting the Earth. Examples of debris include non-operational satellites, rocket bodies, and fragments generated from explosions, collisions, or faulty payload assembly.

Loading next visibility...
Identifier
27006, 2001-056F
Orbit
SSO
Last TLE update
15 hours ago
Origin
Manufacturer
Yuzhnoe
Mission
Spacecraft
Bus & Motor
11S772, Unknown motor
Mass
~9,001 kg wet, 9,000 kg dry
Launch date (UTC)
2001-12-10 (24 years ago)
Launch vehicle
Unknown
Launch site
Tyuratam Missile And Space Complex (TTMTR)
Object type
Payload
Rocket body
Debris
Shape & HBR
Cyl, 10.4 m
Radar Cross Section
37.829 m², Large (>1 m²)

Expand to show TLE details & history

TLE from 15 hours ago
0 SL-16 R/B
1 27006U 01056F   25183.90567584 -.00000022  00000-0  27378-4 0  9996
2 27006  99.7394 341.0685 0013710 268.7018 207.3785 13.71076682178963
Epoch: 2025-07-02T21:44Z
TLE epoch observation values (Epoch: 2025-07-02T21:44:10.392Z)
Latitude
62.43933°
Longitude
-67.05793°
Altitude
1,015.321 km
Speed
7.345 km/s
True Right ascension
12h 00m 39s
True Declination
62° 18' 11"
Sunlit
Object was in daylight at epoch
Visualization orbit readout
Latitude
-78.60441°
Longitude
-143.43892°
Altitude
1,013.441 km
Speed
7.349 km/s
Apparent Right ascension
11h 12m 09s
Apparent Declination
-64° 38' 20"
Sunlit
Object is in daylight
Visualization observer readout
Local Sidereal Time
00:14:39
Azimuth
164.93° S
Elevation
-63.664°
Doppler factor
1
Orbital elements
Apogee altitude
1,003.089 km
Perigee altitude
982.878 km
Semi-major axis
7,371.12 km
Eccentricity
0.00137
Inclination
99.7394°
RAAN
341.0685°
Arg. of periapsis
268.7018°
True anomaly
Unknown
Mean anomaly
207.3785°
Eccentric anomaly
Unknown
Mean motion
3.4296 °/min
Orbital period
104.97 mins
BSTAR
0.000027378
Loading maneuver chart data...
Loading SW <> Apogee altitude chart data...
Loading historical data...
Loading historical data...
Loading historical data...
Loading historical data...
Loading historical data...
Loading historical data...
Loading historical data...

SL-16 R/B Visibility forecast

Observer location: undefined°, undefined°

Span
Click to sort rows by Start time (UTC) header in descending order
Start Az.
Max El. time (UTC)
Max El. Az.
Max El.
End time (UTC)
End Az.
9 mins2025-07-03 22:17:59.065Z41.588° NE2025-07-03 22:22:59.065Z96.632° ESE23.046°2025-07-03 22:26:59.065Z142.977° SSE
10 mins2025-07-04 00:01:59.065Z359.989° N2025-07-04 00:06:59.065Z280.278° WNW37.324°2025-07-04 00:11:59.065Z219.787° SW
10 mins2025-07-04 10:04:59.065Z147.787° SSE2025-07-04 10:08:59.065Z79.844° E42.434°2025-07-04 10:14:59.065Z351.38° N
6 mins2025-07-04 11:50:59.065Z242.559° WSW2025-07-04 11:52:59.065Z265.678° W17.759°2025-07-04 11:56:59.065Z307.871° NW
|